Simultaneous Nadir Overpasses (SNOs) Predictions

Prediction of SNOs between AQUA and GOES-15 Satellite Orbit:

Table of predicted SNOs for the next 14.0 days since TLE Epoch: 7/27/2015
Index Date Time (AQUA) AQUA Lat,Lon GOES-15 Lat,Lon Distance(km) Time Diff (sec)
1 07/29/2015 10:26:02 -0.75,-132.67 -0.22,-135.10 276.54 80
2 07/29/2015 22:47:26 -0.35,-137.87 0.23,-135.11 313.63 80
3 07/31/2015 22:35:12 0.30,-134.90 0.23,-135.09 21.38 80
4 08/02/2015 22:22:57 0.89,-131.93 0.23,-135.06 355.69 80
5 08/03/2015 10:44:12 0.16,-137.09 -0.25,-135.04 232.44 80
6 08/05/2015 10:31:57 -0.44,-134.12 -0.25,-135.01 101.44 80
7 08/05/2015 22:53:21 -0.65,-139.31 0.26,-135.01 488.76 80
8 08/07/2015 10:19:42 -1.05,-131.15 -0.25,-134.97 434.76 80
9 08/07/2015 22:41:06 -0.03,-136.34 0.26,-134.97 155.59 80
10 08/09/2015 22:28:51 0.59,-133.37 0.26,-134.93 177.04 80
11 08/10/2015 10:50:06 0.47,-138.53 -0.28,-134.91 411.87 80




NCC Satellite Simultaneous Nadir Overpasses (SNOs) Prediction Service
